Date,TemperatureHighF,TemperatureAvgF,TemperatureLowF,DewpointHighF,DewpointAvgF,DewpointLowF,HumidityHigh,HumidityAvg,HumidityLow,PressureMaxIn,PressureMinIn,WindSpeedMaxMPH,WindSpeedAvgMPH,GustSpeedMaxMPH,PrecipitationSumIn
2013-1-1,57,55,52,49,47,46,79,75,73,30.17,30.08,1,0,3,0.00
2013-1-2,58,54,51,49,46,42,76,74,72,30.34,30.16,2,0,3,0.00
2013-1-3,56,53,51,47,45,43,75,74,69,30.43,30.34,2,0,5,0.00
2013-1-4,58,55,52,45,43,40,70,64,53,30.37,30.08,1,0,3,0.00
2013-1-5,57,55,53,42,40,38,62,56,49,30.08,29.80,6,0,6,0.00
2013-1-6,54,52,49,40,37,34,61,58,55,29.93,29.72,11,1,14,0.00
2013-1-7,54,50,47,34,32,26,55,49,41,30.04,29.87,15,1,16,0.00
2013-1-8,48,44,41,34,30,25,69,59,40,30.24,30.02,7,0,13,0.22
2013-1-9,48,46,42,32,29,26,55,52,48,30.28,30.20,4,0,6,0.00
2013-1-10,51,48,44,37,32,29,59,54,48,30.23,30.06,0,0,2,0.00
2013-1-11,56,53,50,47,43,37,72,68,59,30.06,29.86,0,0,0,0.06
2013-1-12,58,55,51,48,45,43,73,69,63,30.06,29.83,2,0,2,0.00
2013-1-13,58,55,51,46,43,40,67,64,58,30.25,30.06,3,0,6,0.00
2013-1-14,59,56,54,49,45,43,70,68,65,30.31,30.24,3,0,8,0.00
2013-1-15,60,57,54,52,48,44,78,72,69,30.29,30.04,3,0,7,0.06
2013-1-16,60,58,56,52,50,45,80,75,66,30.04,29.67,5,0,9,1.35
2013-1-17,59,56,53,51,47,44,75,70,66,29.80,29.65,2,0,6,0.00
2013-1-18,59,56,53,51,48,42,77,73,65,29.65,29.46,2,0,6,0.14
2013-1-19,56,54,51,43,42,40,69,64,57,29.88,29.54,2,0,4,0.00
2013-1-20,62,58,54,52,47,43,75,69,64,29.97,29.87,0,0,4,0.00
2013-1-21,63,60,56,54,50,47,76,72,57,29.93,29.66,5,0,7,0.00
2013-1-22,62,60,56,53,50,48,76,69,61,29.81,29.68,2,0,2,0.00
2013-1-23,62,60,58,49,45,43,67,59,52,29.97,29.80,0,0,4,0.00
2013-1-24,62,57,55,51,49,47,75,73,68,29.66,29.59,4,0,5,0.37
2013-1-25,59,55,52,49,47,43,78,73,66,29.67,29.50,7,0,7,0.41
2013-1-26,54,53,53,47,46,46,77,77,76,29.67,29.61,0,0,3,0.08
2013-1-27,56,53,52,46,44,42,76,70,65,29.96,29.67,7,0,9,0.00
2013-1-28,57,54,52,46,43,41,71,67,62,30.02,29.91,4,0,6,0.00
2013-1-29,54,53,51,43,42,41,70,67,63,30.12,30.01,7,0,7,0.00
2013-1-30,57,54,50,42,38,33,69,56,41,30.12,29.95,5,0,6,0.00
2013-1-31,60,57,52,46,40,35,59,55,46,30.04,29.85,7,0,14,0.00
2013-2-1,60,57,53,43,37,32,58,48,41,30.09,29.92,5,0,11,0.00
2013-2-2,62,58,53,50,46,41,70,64,58,29.92,29.77,0,0,3,0.00
2013-2-3,65,62,59,54,53,50,79,73,65,29.93,29.79,5,0,9,0.00
2013-2-4,65,62,60,56,54,52,79,73,65,29.99,29.92,3,0,4,0.00
2013-2-5,64,61,59,53,50,46,75,67,59,30.00,29.85,7,0,114,0.00
2013-2-6,63,59,56,52,48,44,70,66,63,29.85,29.67,1,0,3,0.00
2013-2-7,63,59,56,52,49,46,77,69,63,29.72,29.51,6,0,12,0.51
2013-2-8,58,56,54,49,45,43,74,65,59,29.76,29.54,0,0,2,0.00
2013-2-9,60,56,51,45,42,40,68,61,53,29.88,29.76,0,0,3,0.00
2013-2-10,60,56,53,43,41,39,63,56,49,29.89,29.80,0,0,2,0.00
2013-2-11,58,55,52,40,38,36,61,52,45,30.07,29.78,6,0,7,0.00
2013-2-12,61,56,50,47,41,34,64,57,49,30.08,30.01,0,0,4,0.00
2013-2-13,58,56,53,49,46,44,77,70,61,30.01,29.90,4,0,6,1.14
2013-2-14,56,54,53,49,47,46,78,76,73,29.92,29.69,5,0,8,0.35
2013-2-15,55,54,52,47,46,44,79,74,70,30.05,29.69,8,0,14,0.18
2013-2-16,59,55,52,48,45,43,73,69,62,30.08,30.01,6,0,7,0.06
2013-2-17,53,51,50,46,43,41,77,74,72,30.09,29.97,11,1,15,0.35
2013-2-18,56,52,48,43,41,39,73,66,58,30.11,30.06,9,0,11,0.00
2013-2-19,57,54,52,50,46,40,80,73,65,30.07,29.78,0,0,3,0.20
2013-2-20,60,56,52,46,42,40,73,60,48,30.07,29.83,6,0,6,0.00
2013-2-21,57,56,54,48,44,-100,74,65,61,30.07,29.72,5,0,114,0.02
2013-2-22,58,56,54,51,49,48,84,79,73,29.75,29.58,6,0,13,3.04
2013-2-23,66,58,52,55,50,47,84,74,60,30.05,29.75,1,0,2,0.00
2013-2-24,68,60,54,57,51,47,82,72,58,30.11,30.02,2,0,4,0.00
2013-2-25,72,66,58,56,53,51,81,64,51,30.08,29.98,4,0,114,0.00
2013-2-26,71,63,58,56,50,43,79,63,44,30.05,29.97,1,0,6,0.00
2013-2-27,66,59,55,48,43,39,66,56,41,30.07,29.95,4,0,11,0.00
2013-2-28,60,54,51,44,41,38,67,61,53,30.23,30.07,15,1,16,0.00
2013-3-1,64,55,48,41,40,37,67,56,41,30.21,30.04,0,0,2,0.00
2013-3-2,64,56,49,47,43,38,69,62,53,30.04,29.89,9,0,12,0.00
2013-3-3,58,54,52,47,44,38,80,70,57,29.98,29.79,16,3,21,0.12
2013-3-4,68,58,50,44,41,39,68,55,39,30.19,29.98,2,0,4,0.00
2013-3-5,54,52,50,41,39,35,64,61,54,30.43,30.19,2,0,7,0.00
2013-3-6,64,55,48,40,38,35,61,52,38,30.43,30.16,6,0,10,0.00
2013-3-7,59,56,54,51,47,40,79,71,57,30.17,29.94,2,0,5,0.14
2013-3-8,68,57,54,54,50,48,80,77,59,29.93,29.87,0,0,114,0.02
2013-3-9,66,66,65,52,51,51,60,60,60,29.74,29.73,0,0,0,0.00
2013-3-10,74,64,61,51,51,50,69,63,45,29.77,29.72,0,0,2,0.00
2013-3-11,75,65,58,58,53,48,75,66,55,29.73,29.56,0,0,5,0.00
2013-3-12,76,66,60,50,46,44,62,51,36,29.71,29.57,2,0,5,0.00
2013-3-13,74,64,57,52,48,45,64,55,40,29.74,29.68,2,0,6,0.00
2013-3-14,71,65,61,55,51,46,78,62,43,29.71,29.30,7,0,11,0.00
2013-3-15,55,55,55,39,39,39,54,54,54,29.62,29.61,0,0,0,0.00
2013-3-16,63,56,52,42,39,36,58,53,43,30.02,29.60,5,0,7,0.00
2013-3-17,64,56,50,40,36,32,60,49,35,30.15,30.01,4,0,11,0.00
2013-3-18,60,58,57,47,44,41,68,60,51,30.14,29.96,0,0,4,0.00
2013-3-19,66,61,57,53,50,46,70,67,61,29.97,29.77,6,0,7,0.00
2013-3-20,69,64,58,55,51,48,72,64,58,29.91,29.81,0,0,2,0.00
2013-3-21,68,64,62,54,52,46,71,65,56,29.81,29.53,3,0,6,0.00
2013-3-22,68,62,58,45,40,36,56,46,37,29.76,29.54,6,0,6,0.00
2013-3-23,69,63,60,41,38,32,49,40,25,29.98,29.89,3,0,4,0.00
2013-3-24,69,62,57,52,46,40,62,56,49,30.02,29.94,4,0,7,0.00
2013-3-25,68,63,60,54,51,48,73,64,56,29.96,29.61,6,0,9,0.00
2013-3-26,70,64,60,54,50,47,73,60,49,29.65,29.53,2,0,6,0.00
2013-3-27,68,64,60,53,49,45,61,58,51,29.84,29.65,0,0,7,0.00
2013-3-28,69,63,61,54,51,48,71,63,57,30.03,29.84,1,0,4,0.10
2013-3-29,68,65,64,52,52,51,66,62,57,30.02,29.99,0,0,0,0.00
2013-3-30,74,68,62,55,53,51,68,59,48,30.01,29.82,6,0,6,0.00
2013-3-31,73,67,64,58,54,51,69,64,59,29.85,29.73,4,0,4,0.00
2013-4-1,75,68,62,55,48,42,70,52,34,29.88,29.76,2,0,6,0.00
2013-4-2,73,67,63,52,48,45,54,50,44,29.88,29.56,5,0,7,0.00
2013-4-3,74,68,64,55,50,45,68,53,39,29.67,29.46,5,0,8,0.00
2013-4-4,74,67,62,49,46,44,54,47,36,29.93,29.67,6,0,6,0.00
2013-4-5,73,67,63,52,47,42,56,49,36,29.96,29.80,7,0,7,0.00
2013-4-6,74,68,62,55,51,47,59,55,49,29.81,29.70,3,0,6,0.00
2013-4-7,71,67,64,57,52,48,69,60,51,29.70,29.30,13,1,16,0.02
2013-4-8,64,63,61,51,49,48,66,60,56,29.89,29.40,10,0,10,0.00
2013-4-9,71,64,59,51,48,46,66,57,43,29.99,29.89,2,0,8,0.00
2013-4-10,74,66,60,52,49,46,62,54,40,30.00,29.90,2,0,7,0.00
2013-4-11,77,68,61,52,49,46,60,51,37,30.03,29.92,4,0,6,0.00
2013-4-12,75,68,62,53,49,45,57,51,43,30.07,29.99,2,0,7,0.00
2013-4-13,78,69,63,54,49,46,56,49,42,30.10,30.05,4,0,6,0.00
2013-4-14,78,70,66,52,50,46,60,50,37,30.10,30.02,9,1,19,0.00
2013-4-15,69,65,62,47,44,41,54,48,41,30.10,30.00,13,2,114,0.00
2013-4-16,70,63,59,46,44,41,61,50,36,30.09,30.01,12,2,17,0.00
2013-4-17,70,64,60,42,37,30,50,38,26,30.10,30.04,12,2,15,0.00
2013-4-18,69,63,59,40,35,30,45,35,25,30.09,30.02,13,2,22,0.00
2013-4-19,65,62,58,45,38,33,52,43,35,30.03,29.95,9,1,17,0.00
2013-4-20,70,63,58,46,41,38,53,45,38,30.05,29.95,10,1,15,0.00
2013-4-21,72,68,62,47,44,39,51,43,33,30.06,29.94,9,0,9,0.00
2013-4-22,76,68,62,48,44,41,51,42,32,30.08,29.99,6,0,9,0.00
2013-4-23,76,69,64,51,47,42,52,45,40,30.23,30.07,9,0,10,0.00
2013-4-24,80,71,64,54,46,39,55,41,25,30.31,30.21,7,0,11,0.00
2013-4-25,83,74,67,51,47,44,45,38,30,30.29,30.14,8,0,11,0.00
2013-4-26,86,76,68,51,47,42,42,36,27,30.17,29.98,4,0,10,0.00
2013-4-27,85,76,69,50,46,42,43,35,28,29.99,29.89,3,0,6,0.00
2013-4-30,89,84,78,53,49,46,34,30,27,30.06,30.00,10,2,14,0.00
2013-5-1,89,81,74,55,50,45,42,34,28,30.04,29.93,10,1,114,0.00
2013-5-2,91,82,75,52,46,41,38,29,22,29.95,29.88,8,1,14,0.00
2013-5-4,89,80,74,60,56,53,49,44,36,29.94,29.83,1,0,4,0.00
2013-5-5,90,80,74,59,55,52,49,43,34,30.04,29.92,4,0,7,0.00
2013-5-6,85,79,77,59,56,53,48,45,41,30.05,29.99,7,0,13,0.00
2013-5-7,84,81,77,54,53,52,42,38,35,29.93,29.87,13,1,13,0.00
2013-5-8,78,75,71,60,56,52,60,53,42,29.92,29.82,12,0,12,0.00
2013-5-9,78,72,68,59,56,54,60,57,50,29.91,29.83,24,2,24,0.00
2013-5-10,76,71,67,59,55,52,66,58,50,29.91,29.85,12,0,12,0.02
2013-5-11,81,74,69,62,56,53,63,55,47,29.90,29.77,5,0,5,0.00
2013-5-12,84,75,72,60,57,54,59,54,40,29.78,29.63,7,0,57,0.00
2013-5-15,81,73,65,59,54,51,63,52,43,29.92,29.86,7,0,7,0.00
2013-5-16,79,73,69,60,56,53,62,56,46,29.94,29.87,7,0,7,0.00
2013-5-17,77,73,70,62,58,55,67,59,54,29.97,29.85,7,0,7,0.00
2013-5-18,87,78,70,66,61,58,66,57,47,30.02,29.93,6,0,6,0.00
2013-5-19,90,81,74,64,60,58,58,49,37,30.00,29.91,6,0,6,0.00
2013-5-20,91,83,77,66,62,58,56,49,42,29.95,29.89,6,0,6,0.00
2013-5-21,90,82,77,62,59,56,53,46,32,29.95,29.88,7,0,7,0.00
2013-5-22,88,81,77,62,59,42,53,46,37,29.93,29.75,7,0,7,0.00
2013-5-23,89,81,76,62,57,51,59,43,35,29.76,29.60,8,0,8,0.00
2013-5-24,84,77,73,57,53,50,48,44,39,29.93,29.73,6,0,6,0.00
2013-5-25,86,78,72,57,53,50,48,42,32,29.97,29.91,9,0,9,0.00
2013-5-26,86,79,73,55,53,51,49,41,32,29.97,29.86,8,0,8,0.00
2013-5-27,85,77,72,53,48,43,46,36,26,29.99,29.91,8,0,8,0.00
2013-5-28,81,76,71,60,54,50,56,47,40,29.98,29.79,14,0,14,0.00
2013-5-29,88,80,74,62,55,44,53,43,33,29.79,29.59,13,1,13,0.00
2013-5-30,89,81,74,62,58,52,58,46,34,29.75,29.67,6,0,6,0.00
2013-5-31,87,80,74,60,52,45,53,40,30,29.82,29.68,8,0,8,0.00
2013-6-1,80,75,71,58,50,43,59,43,34,29.89,29.80,6,0,6,0.00
2013-6-2,83,76,69,58,54,49,61,48,37,29.85,29.69,9,0,9,0.02
2013-6-3,85,76,70,56,53,51,52,45,32,29.90,29.85,6,0,6,0.00
2013-6-4,85,78,73,60,56,51,55,47,34,29.91,29.84,8,0,8,0.00
2013-6-5,85,78,72,58,54,50,58,44,33,29.97,29.90,8,0,8,0.00
2013-6-6,85,79,74,62,58,55,58,49,38,30.03,29.95,8,0,8,0.00
2013-6-7,80,78,76,61,57,51,57,49,38,30.02,29.86,7,0,7,0.00
2013-6-8,87,79,74,62,59,55,59,52,39,29.89,29.81,14,1,14,0.02
2013-6-9,87,79,73,63,60,57,58,52,43,29.97,29.88,7,0,7,0.00
2013-6-10,88,81,75,63,60,57,56,50,43,29.97,29.85,4,0,4,0.00
2013-6-11,90,84,80,63,59,54,51,44,33,29.85,29.63,13,0,13,0.00
2013-6-12,89,80,74,62,57,52,66,47,36,29.80,29.68,13,0,13,0.31
2013-6-13,78,74,72,62,60,57,68,60,53,29.86,29.77,11,0,11,0.00
2013-6-14,81,76,72,64,60,58,67,58,53,29.94,29.85,9,0,9,0.02
2013-6-15,85,79,72,64,61,58,61,54,48,29.96,29.91,4,0,4,0.00
2013-6-16,85,78,74,66,61,57,57,56,51,29.99,29.93,0,0,0,0.00
2013-6-17,94,85,78,66,61,58,57,45,34,30.00,29.94,16,1,16,0.00
2013-6-18,93,87,81,63,60,57,48,40,32,30.00,29.94,22,2,22,0.00
2013-6-19,95,88,84,61,58,55,43,36,32,29.96,29.88,21,3,21,0.00
2013-6-20,96,90,83,60,58,55,41,35,30,29.99,29.89,21,3,21,0.00
2013-6-21,87,85,83,61,60,56,44,42,38,29.98,29.91,15,2,15,0.00
2013-6-22,88,86,84,59,56,49,42,37,26,29.88,29.83,0,0,1,0.00
2013-6-23,83,82,82,54,54,53,37,37,37,29.83,29.82,2,0,2,0.00
2013-7-9,92,89,87,62,61,58,43,39,32,29.89,29.85,20,1,20,0.00
2013-7-10,95,88,83,65,61,55,50,41,33,29.89,29.76,12,1,12,0.00
2013-7-11,92,85,83,63,58,55,45,40,35,29.81,29.78,9,0,9,0.00
2013-12-27,59,59,58,53,53,53,81,81,81,29.89,29.86,0,0,0,0.82
2014-1-1,54,53,53,46,45,44,76,74,71,30.18,30.13,5,0,5,0.14
2014-1-2,58,55,53,49,47,45,77,73,67,30.18,30.11,1,0,1,0.00